1531422001.11,50052,20.94,73996.5,3.63,2.69,2.55,0,*76
1531422002.34,50053,20.94,73998.8,3.63,2.59,2.55,0,*74
1531422003.57,50054,20.94,73994.5,3.63,2.59,2.59,0,*7F
1531422004.77,50055,20.94,73998.5,3.63,2.65,2.55,0,*7D
1531422006.0,50056,20.94,73996.5,3.63,2.59,2.47,0,*72
1531422007.22,50057,20.94,73998.8,3.63,2.55,2.47,0,*7F
1531422008.45,50058,20.94,74002.0,3.63,2.55,2.47,0,*70
1531422009.67,50059,20.94,73996.3,3.63,2.59,2.47,0,*7D
1531422010.93,50060,20.94,73992.5,3.61,2.59,2.47,0,*75
1531422012.15,50061,20.94,73996.8,3.63,2.55,2.47,0,*7A
1531422013.38,50062,20.94,73996.5,3.63,2.59,2.47,0,*75
1531422014.6,50063,20.94,73996.0,3.63,2.55,2.43,0,*7C
1531422015.83,50064,20.94,73998.8,3.63,2.47,2.47,0,*7C
1531422017.03,50065,20.94,73996.0,3.63,2.43,2.35,0,*7C
1531422018.26,50066,20.94,73996.5,3.63,2.43,2.43,0,*7E
1531422019.44,50067,20.94,73998.0,3.63,2.35,2.35,0,*7F
1531422020.64,50068,20.94,73996.8,3.61,2.35,2.35,0,*72
1531422021.89,50069,20.94,73996.8,3.61,2.47,2.43,0,*77
1531422023.12,50070,20.94,73994.3,3.61,2.47,2.35,0,*7E
1531422024.31,50071,20.94,73996.3,3.61,2.35,2.35,0,*7A
1531422025.51,50072,20.94,73998.0,3.63,2.47,2.35,0,*7E
1531422026.72,50073,20.94,73992.5,3.63,2.43,2.35,0,*7B
1531422027.94,50074,20.94,73992.8,3.61,2.43,2.31,0,*7A
1531422029.19,50075,20.94,73994.5,3.61,2.47,2.43,0,*7A
1531422030.4,50076,20.94,73996.8,3.63,2.43,2.35,0,*7E
1531422031.57,50077,20.94,73996.0,3.63,2.35,2.31,0,*7A
1531422032.8,50078,20.94,73996.8,3.63,2.43,2.43,0,*71
1531422034.05,50079,20.94,73998.3,3.61,2.43,2.43,0,*72
1531422035.25,50080,20.94,73994.5,3.63,2.47,2.35,0,*73
1531422036.47,50081,20.94,73996.3,3.61,2.55,2.35,0,*73
1531422037.68,50082,20.94,73996.5,3.63,2.43,2.35,0,*75
1531422038.9,50083,20.94,73998.0,3.61,2.31,2.25,0,*72
1531422040.1,50084,20.94,73998.3,3.63,2.43,2.35,0,*73
1531422041.33,50085,20.94,73998.3,3.61,2.47,2.35,0,*74
1531422042.56,50086,20.94,73996.5,3.63,2.43,2.43,0,*70
1531422043.76,50087,20.94,73996.3,3.63,2.47,2.35,0,*74
1531422044.99,50088,20.94,73996.0,3.63,2.55,2.47,0,*7D
1531422046.21,50089,20.94,73996.8,3.63,2.55,2.43,0,*78
1531422047.44,50090,20.94,73996.3,3.63,2.47,2.43,0,*73
1531422048.7,50091,20.94,73996.0,3.61,2.43,2.43,0,*74
1531422049.93,50092,20.94,73992.8,3.63,2.47,2.43,0,*71
1531422051.18,50093,20.94,73996.3,3.61,2.47,2.43,0,*72
1531422052.41,50094,20.94,73998.0,3.61,2.43,2.35,0,*70
1531422053.64,50095,20.94,73996.0,3.61,2.35,2.43,0,*71
1531422054.89,50096,20.94,73992.3,3.61,2.09,2.09,0,*73
1531422056.1,50097,20.94,73996.8,3.63,2.21,2.21,0,*70
1531422057.33,50098,20.94,73996.3,3.63,2.13,2.21,0,*7E
1531422058.57,50099,20.94,73998.3,3.61,2.21,2.21,0,*7C
1531422059.82,50100,20.94,73998.8,3.61,2.13,2.13,0,*7D
1531422061.04,50101,20.94,73996.8,3.63,2.21,2.21,0,*7E
1531422062.29,50102,20.94,73996.3,3.61,2.21,2.21,0,*7F
1531422063.54,50103,20.94,73998.0,3.61,2.21,2.13,0,*7F
1531422064.76,50104,20.94,73994.0,3.61,2.31,2.25,0,*7C
1531422066.01,50105,20.94,73998.0,3.61,2.25,2.25,0,*78
1531422067.26,50106,20.94,73998.0,3.61,2.25,2.21,0,*7F
1531422068.48,50107,20.94,73996.3,3.61,2.31,2.25,0,*7F
1531422069.66,50108,20.94,73998.0,3.59,2.31,2.27,0,*79
1531422070.84,50109,20.94,73996.0,3.59,2.27,2.27,0,*7F
1531422072.01,50110,20.94,73998.8,3.59,2.31,2.27,0,*70
1531422073.24,50111,20.94,73996.8,3.61,2.31,2.25,0,*78
1531422074.49,50112,20.94,73996.3,3.61,2.25,2.25,0,*7E
1531422075.71,50113,20.94,73998.5,3.61,2.25,2.31,0,*7A
1531422076.93,50114,20.94,73998.5,3.61,2.31,2.25,0,*7D
1531422078.16,50115,20.94,73996.0,3.61,2.35,2.25,0,*78
1531422079.36,50116,20.94,73998.0,3.59,2.27,2.21,0,*77
1531422080.56,50117,20.94,73998.5,3.59,2.27,2.17,0,*73
1531422081.79,50118,20.94,73998.8,3.63,2.21,2.09,0,*7C
1531422083.04,50119,20.94,73996.3,3.61,2.21,2.13,0,*74
1531422084.28,50120,20.94,73998.8,3.61,2.25,2.21,0,*7B
1531422085.53,50121,20.94,73998.3,3.61,2.25,2.21,0,*7A
1531422086.75,50122,20.94,73998.8,3.59,2.21,2.09,0,*7C
1531422088.02,50123,20.94,73998.8,3.57,2.17,2.17,0,*79
1531422089.28,50124,20.94,74002.5,3.57,2.25,2.17,0,*7F
1531422090.48,50125,20.94,73998.0,3.59,2.21,2.27,0,*77
1531422091.7,50126,20.94,73998.3,3.59,2.21,2.21,0,*72
1531422092.89,50127,20.94,73998.8,3.59,2.27,2.21,0,*75
1531422094.12,50128,20.94,73998.8,3.59,2.21,2.17,0,*79
1531422095.35,50129,20.94,73994.5,3.59,2.21,2.17,0,*78
1531422096.59,50130,20.94,73996.3,3.61,2.25,2.21,0,*7A
1531422097.85,50131,20.94,73998.0,3.61,2.25,2.13,0,*7A
1531422099.1,50132,20.94,73998.3,3.61,2.25,2.13,0,*79
1531422100.32,50133,20.94,74000.3,3.61,2.31,2.21,0,*7C
1531422101.55,50134,20.94,74002.3,3.59,2.09,2.01,0,*79
1531422102.78,50135,20.94,74000.8,3.59,2.17,1.93,0,*7F
1531422104.0,50136,20.94,73998.5,3.59,2.05,1.89,0,*74
1531422105.2,50137,20.94,73996.5,3.59,2.01,1.79,0,*7E
1531422106.41,50138,20.94,73996.8,3.59,1.93,1.83,0,*7C
1531422107.6,50139,20.94,73998.5,3.59,1.79,1.59,0,*7E
1531422108.83,50140,20.94,73998.0,3.57,1.79,1.63,0,*77
1531422110.08,50141,20.94,73996.5,3.57,1.67,1.51,0,*78
1531422111.31,50142,20.94,73996.5,3.59,1.71,1.55,0,*76
1531422112.54,50143,20.94,74002.0,3.57,1.79,1.55,0,*71
1531422113.74,50144,20.94,73998.3,3.59,1.83,1.55,0,*7D
1531422114.99,50145,20.94,73998.3,3.57,1.67,1.51,0,*7C
1531422116.25,50146,20.94,73998.0,3.57,1.67,1.51,0,*7F
1531422117.44,50147,20.94,73998.8,3.55,1.43,1.41,0,*7B
1531422118.64,50148,20.94,73998.0,3.55,1.51,1.41,0,*77
1531422119.84,50149,20.94,74000.5,3.55,1.55,1.41,0,*72
1531422121.04,50150,20.94,73998.0,3.55,1.41,1.25,0,*7D
1531422122.31,50151,20.94,73998.8,3.53,1.21,1.09,0,*72
1531422123.54,50152,20.94,73996.3,3.55,1.25,1.17,0,*7C
1531422124.8,50153,20.94,73996.3,3.53,1.29,1.13,0,*73
1531422126.07,50154,20.94,73998.5,3.53,1.29,1.29,0,*7D
1531422127.27,50155,20.94,74002.3,3.51,1.41,1.37,0,*7F
1531422128.5,50156,20.94,74000.3,3.51,1.47,1.37,0,*7A
1531422129.7,50157,20.94,74000.5,3.51,1.47,1.41,0,*7A
1531422130.94,50158,20.94,73998.0,3.51,1.37,1.37,0,*73
1531422132.15,50159,20.94,74000.0,3.51,1.41,1.37,0,*73
1531422133.37,50160,20.94,74002.3,3.51,1.51,1.51,0,*78
1531422134.6,50161,20.94,74002.0,3.53,1.47,1.41,0,*7D
1531422135.8,50162,20.94,74002.0,3.51,1.37,1.41,0,*7B
1531422137.01,50163,20.94,74000.8,3.51,1.41,1.37,0,*7A
1531422138.23,50164,20.94,73996.3,3.51,1.51,1.47,0,*7B
1531422139.48,50165,20.94,74002.0,3.49,1.47,1.43,0,*70
1531422140.75,50166,20.94,74000.3,3.49,1.33,1.33,0,*77
1531422142.02,50167,20.94,73998.5,3.49,1.33,1.37,0,*72
1531422143.28,50168,20.94,73998.8,3.49,1.33,1.37,0,*7D
1531422144.55,50169,20.94,74000.0,3.45,1.17,1.21,0,*71
1531422145.81,50170,20.94,74000.8,3.45,1.13,1.21,0,*7D
1531422147.08,50171,20.94,74002.0,3.45,1.13,1.21,0,*7C
1531422148.31,50172,20.94,73998.8,3.45,1.05,1.21,0,*78
1531422149.55,50173,20.94,74002.3,3.43,1.13,1.21,0,*78
1531422150.78,50174,20.94,73998.0,3.43,1.21,1.33,0,*7D
1531422152.01,50175,20.94,74002.0,3.43,1.33,1.43,0,*78
1531422153.24,50176,20.94,73996.8,3.43,1.67,1.67,0,*7C
1531422154.45,50177,20.94,74002.5,3.41,1.75,1.83,0,*76
1531422155.64,50178,20.94,74002.8,3.39,1.83,1.89,0,*75
1531422156.88,50179,20.94,73998.5,3.41,1.75,1.85,0,*7E
1531422158.14,50180,20.94,74000.3,3.41,1.71,1.85,0,*7C
1531422159.37,50181,20.94,73998.0,3.41,1.71,1.83,0,*7B
1531422160.6,50182,20.94,73998.8,3.39,1.63,1.85,0,*72
1531422161.84,50183,20.94,73998.3,3.41,1.75,1.85,0,*7B
1531422163.07,50184,20.94,73998.5,3.41,1.71,1.83,0,*7E
1531422164.33,50185,20.94,73998.0,3.41,1.71,1.85,0,*79
1531422165.56,50186,20.94,73996.5,3.39,1.51,1.63,0,*7F
1531422166.79,50187,20.88,73992.8,3.39,1.71,1.85,0,*74
1531422168.05,50188,20.94,73994.5,3.41,1.71,1.85,0,*74
1531422169.28,50189,20.94,73994.3,3.39,1.85,1.97,0,*72
1531422170.54,50190,20.94,73996.8,3.41,1.97,2.01,0,*7A
1531422171.8,50191,20.94,73998.0,3.41,1.97,2.09,0,*73
1531422173.05,50192,20.94,73992.0,3.41,1.97,2.01,0,*78
1531422174.28,50193,20.94,73996.8,3.39,2.01,2.09,0,*72
1531422175.54,50194,20.94,73994.5,3.41,2.09,2.09,0,*72
1531422176.79,50195,20.94,73996.3,3.41,2.09,2.21,0,*79
1531422178.05,50196,20.94,73994.0,3.41,2.13,2.21,0,*71
1531422179.31,50197,20.94,73994.3,3.41,2.13,2.13,0,*71
1531422180.56,50198,20.94,73998.0,3.41,2.01,2.01,0,*7E
1531422181.82,50199,20.94,73994.5,3.41,2.01,2.01,0,*7F
1531422183.08,50200,20.94,73994.8,3.41,2.09,2.01,0,*74
1531422184.31,50201,20.94,73994.8,3.39,2.13,2.09,0,*79
1531422185.53,50202,20.94,73994.3,3.41,2.31,2.21,0,*7F
1531422186.76,50203,20.94,73992.5,3.41,2.35,2.25,0,*7E
1531422188.02,50204,20.94,73994.0,3.41,2.43,2.25,0,*78
1531422189.25,50205,20.94,73992.0,3.39,2.43,2.25,0,*76
1531422190.45,50206,20.94,73994.8,3.39,2.35,2.25,0,*74
1531422191.71,50207,20.94,73992.8,3.41,2.43,2.25,0,*7B
1531422192.91,50208,20.94,73998.5,3.41,2.35,2.31,0,*70
1531422194.17,50209,20.94,73996.0,3.41,2.43,2.25,0,*75
1531422195.4,50210,20.94,73992.0,3.41,2.35,2.21,0,*78
1531422196.63,50211,20.94,73994.5,3.41,2.35,2.25,0,*7D
1531422197.86,50212,20.94,73998.5,3.39,2.43,2.25,0,*70
1531422199.09,50213,20.94,73996.3,3.41,2.35,2.25,0,*7F
1531422200.32,50214,20.94,73998.0,3.41,2.35,2.21,0,*7C
1531422201.54,50215,20.94,73998.8,3.41,2.35,2.21,0,*7D
1531422202.8,50216,20.94,73994.3,3.41,2.25,2.13,0,*7E
1531422204.06,50217,20.94,73998.8,3.41,2.25,2.13,0,*7F
1531422205.29,50218,20.94,73998.0,3.39,2.13,2.09,0,*71
1531422206.52,50219,20.94,73998.8,3.41,2.31,2.21,0,*75
1531422207.77,50220,20.94,73996.3,3.41,2.25,2.21,0,*7A
1531422209.0,50221,20.94,73998.0,3.41,2.31,2.21,0,*7E
1531422210.23,50222,20.94,73998.0,3.41,2.31,2.25,0,*79
1531422211.43,50223,20.88,73994.8,3.41,2.31,2.31,0,*7D
1531422212.67,50224,20.88,73994.5,3.41,2.43,2.31,0,*7F
1531422213.89,50225,20.94,73998.8,3.41,2.35,2.25,0,*7A
1531422215.1,50226,20.94,73998.8,3.39,2.35,2.25,0,*76
1531422216.35,50227,20.94,73998.3,3.41,2.25,2.25,0,*79
1531422217.61,50228,20.94,73996.5,3.41,2.13,2.01,0,*75
1531422218.83,50229,20.94,73996.3,3.39,2.21,2.09,0,*72
1531422220.09,50230,20.94,73998.0,3.41,2.21,2.13,0,*7E
1531422221.34,50231,20.94,73998.8,3.41,2.21,2.13,0,*7F
1531422222.6,50232,20.94,73998.8,3.41,2.25,2.13,0,*78
1531422223.85,50233,20.94,73998.3,3.41,2.21,2.21,0,*7C
1531422225.11,50234,20.94,73996.8,3.41,2.09,2.01,0,*73
1531422226.37,50235,20.94,73998.5,3.41,2.01,2.01,0,*7A
1531422227.62,50236,20.94,74002.3,3.41,2.21,2.09,0,*73
1531422228.84,50237,20.94,73996.5,3.41,2.25,2.31,0,*7D
1531422230.07,50238,20.94,74002.3,3.39,2.21,2.25,0,*7C
1531422231.3,50239,20.94,73996.3,3.41,2.31,2.25,0,*73
1531422232.56,50240,20.94,73998.3,3.41,2.25,2.25,0,*78
1531422233.78,50241,20.94,73996.3,3.41,2.25,2.31,0,*7C
1531422235.04,50242,20.94,73996.8,3.41,2.13,2.13,0,*7A
1531422236.3,50243,20.88,73998.0,3.41,2.25,2.21,0,*7F
1531422237.53,50244,20.94,73998.5,3.41,2.31,2.25,0,*79
1531422238.73,50245,20.94,73996.3,3.41,2.31,2.31,0,*7D
1531422239.93,50246,20.94,73998.8,3.41,2.35,2.31,0,*7A
1531422241.14,50247,20.88,73996.5,3.41,2.35,2.35,0,*7F
1531422242.31,50248,20.94,74002.3,3.39,2.35,2.35,0,*7F
1531422243.57,50249,20.94,74000.0,3.41,2.47,2.43,0,*75
1531422244.83,50250,20.94,73996.3,3.41,2.43,2.47,0,*7D
1531422246.08,50251,20.94,73996.3,3.41,2.55,2.47,0,*7B
1531422247.34,50252,20.94,73998.3,3.41,2.55,2.55,0,*7B
1531422248.6,50253,20.94,73998.8,3.41,2.47,2.47,0,*7A
1531422249.85,50254,20.94,73998.5,3.41,2.55,2.47,0,*7E
1531422251.1,50255,20.88,73994.8,3.41,2.55,2.55,0,*7C
1531422252.36,50256,20.88,73996.5,3.41,2.55,2.47,0,*7C
1531422253.61,50257,20.94,73998.3,3.41,2.55,2.55,0,*7E
1531422254.87,50258,20.94,73998.3,3.41,2.55,2.47,0,*72
1531422256.1,50259,20.94,74000.5,3.43,2.59,2.51,0,*7A
1531422257.34,50260,20.94,73998.5,3.43,2.59,2.51,0,*70
1531422258.56,50261,20.94,73998.0,3.43,2.51,2.47,0,*7E
1531422259.79,50262,20.94,73998.3,3.43,2.59,2.47,0,*75
1531422261.03,50263,20.94,74000.8,3.43,2.51,2.39,0,*75
1531422262.25,50264,20.94,73998.5,3.43,2.51,2.47,0,*7B
1531422263.49,50265,20.94,73996.3,3.43,2.59,2.51,0,*75
1531422264.73,50266,20.94,74000.8,3.43,2.51,2.51,0,*7E
1531422265.96,50267,20.94,74000.3,3.43,2.51,2.51,0,*7F
1531422267.19,50268,20.94,73998.0,3.43,2.59,2.59,0,*70
1531422268.4,50269,20.94,73998.3,3.43,2.61,2.59,0,*7A
1531422269.63,50270,20.94,73996.8,3.43,2.59,2.51,0,*71
1531422270.86,50271,20.94,73998.0,3.43,2.69,2.51,0,*73
1531422272.11,50272,20.94,74002.5,3.45,2.69,2.59,0,*7E
1531422273.37,50273,20.94,73996.3,3.45,2.69,2.59,0,*7F
1531422274.57,50274,20.94,73996.3,3.43,2.61,2.51,0,*7E
1531422275.78,50275,20.94,73998.0,3.43,2.61,2.51,0,*7F
1531422277.03,50276,20.94,73996.5,3.45,2.69,2.59,0,*7A
1531422278.29,50277,20.94,73998.5,3.45,2.69,2.59,0,*7B
1531422279.49,50278,20.94,73998.8,3.43,2.61,2.51,0,*72
1531422280.72,50279,20.94,74000.5,3.45,2.61,2.59,0,*7D
1531422281.93,50280,20.94,73996.8,3.43,2.69,2.61,0,*7E
1531422283.18,50281,20.94,73998.8,3.45,2.69,2.59,0,*72
1531422284.41,50282,20.94,73998.5,3.45,2.61,2.59,0,*79
1531422285.66,50283,20.94,73998.8,3.45,2.69,2.59,0,*70
1531422286.92,50284,20.94,73998.0,3.45,2.69,2.59,0,*77
1531422288.15,50285,20.94,73998.3,3.49,2.73,2.65,0,*7E
1531422289.4,50286,20.94,73996.3,3.45,2.69,2.69,0,*76
1531422290.64,50287,20.94,73998.8,3.45,2.73,2.69,0,*7C
1531422291.85,50288,20.94,73996.5,3.43,2.73,2.61,0,*7D
1531422293.05,50289,20.94,73996.0,3.43,2.73,2.61,0,*7C
1531422294.28,50290,20.94,73998.8,3.45,2.69,2.61,0,*79
1531422295.53,50291,20.94,73996.5,3.45,2.73,2.69,0,*7B
1531422296.75,50292,20.94,73998.8,3.43,2.73,2.69,0,*7E
1531422297.97,50293,20.94,73996.3,3.43,2.73,2.69,0,*7F
1531422299.22,50294,20.94,73996.8,3.45,2.73,2.69,0,*7E
1531422300.47,50295,20.94,73996.3,3.45,2.77,2.73,0,*70
1531422301.73,50296,20.88,73998.0,3.45,2.77,2.73,0,*73
1531422302.98,50297,20.88,73996.3,3.45,2.73,2.73,0,*76
1531422304.22,50298,20.94,73996.8,3.45,2.73,2.69,0,*72
1531422305.47,50299,20.94,73998.5,3.45,2.73,2.69,0,*73
1531422306.73,50300,20.94,74000.3,3.49,2.77,2.73,0,*71
1531422307.99,50301,20.94,73998.0,3.49,2.81,2.73,0,*79
1531422309.22,50302,20.94,73998.5,3.49,2.77,2.65,0,*74
1531422310.45,50303,20.94,73996.3,3.45,2.77,2.61,0,*7D
1531422311.68,50304,20.94,73996.0,3.45,2.73,2.61,0,*7E
1531422312.93,50305,20.94,73998.3,3.45,2.73,2.59,0,*74
1531422314.17,50306,20.88,73998.3,3.45,2.61,2.51,0,*7C
1531422315.4,50307,20.94,73998.0,3.45,2.59,2.35,0,*74
1531422316.62,50308,20.94,73996.3,3.49,2.55,2.31,0,*7F
1531422317.85,50309,20.94,73998.0,3.49,2.51,2.27,0,*7D
1531422319.11,50310,20.94,73996.0,3.45,2.39,2.25,0,*75
1531422320.34,50311,20.94,73998.8,3.45,2.47,2.35,0,*7C
1531422321.57,50312,20.94,73996.8,3.43,2.51,2.39,0,*72
1531422322.83,50313,20.94,73998.8,3.45,2.59,2.51,0,*73
1531422324.06,50314,20.94,73998.0,3.45,2.61,2.59,0,*77
1531422325.29,50315,20.88,73994.3,3.43,2.77,2.69,0,*74
1531422326.51,50316,20.94,73996.5,3.43,2.77,2.73,0,*7C
1531422327.76,50317,20.88,73994.8,3.45,2.89,2.77,0,*7E
1531422328.99,50318,20.94,73994.8,3.43,2.85,2.73,0,*7F
1531422330.24,50319,20.88,73992.5,3.45,2.77,2.73,0,*75
1531422331.5,50320,20.88,73996.3,3.45,2.77,2.77,0,*7B
1531422332.75,50321,20.88,73994.8,3.45,2.77,2.77,0,*7A
1531422334.0,50322,20.94,73998.8,3.45,2.89,2.73,0,*7C
1531422335.25,50323,20.88,73996.3,3.45,2.89,2.85,0,*74
1531422336.49,50324,20.94,73998.0,3.49,2.91,2.89,0,*7A
1531422337.75,50325,20.94,73998.8,3.49,2.89,2.89,0,*72
1531422339.01,50326,20.94,73998.8,3.49,2.89,2.81,0,*79
1531422340.25,50327,20.94,73996.5,3.49,2.91,2.89,0,*79
1531422341.43,50328,20.94,73998.8,3.51,2.91,2.91,0,*76
1531422342.61,50329,20.88,73998.3,3.51,2.95,2.91,0,*73
1531422343.84,50330,20.94,74000.3,3.49,2.91,2.89,0,*7F
1531422345.02,50331,20.94,73996.3,3.51,2.95,2.91,0,*7A
1531422346.26,50332,20.94,73998.3,3.49,2.91,2.89,0,*7D
1531422347.49,50333,20.94,73996.8,3.49,2.89,2.91,0,*7C
1531422348.7,50334,20.94,73998.5,3.49,2.91,2.91,0,*72
1531422349.88,50335,20.88,73998.3,3.51,2.91,2.95,0,*7E
1531422351.08,50336,20.94,73996.0,3.53,2.95,2.91,0,*7F
1531422352.29,50337,20.94,73998.8,3.49,2.99,2.91,0,*79
1531422353.53,50338,20.88,73996.5,3.49,3.03,2.91,0,*74
1531422354.76,50339,20.94,73998.0,3.51,3.07,3.03,0,*72
1531422356.0,50340,20.94,73996.8,3.51,3.07,3.03,0,*7C
1531422357.21,50341,20.88,73996.3,3.49,2.99,2.99,0,*70
1531422358.45,50342,20.94,73998.0,3.51,3.07,3.07,0,*7A
1531422359.69,50343,20.94,73998.3,3.51,3.07,3.03,0,*7F
1531422360.89,50344,20.88,73994.5,3.51,2.95,3.03,0,*72
1531422362.1,50345,20.88,73992.0,3.51,2.95,3.03,0,*73
1531422363.28,50346,20.94,73996.0,3.51,2.91,2.91,0,*7E
1531422364.49,50347,20.94,73998.0,3.53,2.95,2.95,0,*7D
1531422365.69,50348,20.94,73998.3,3.53,2.95,2.91,0,*76
1531422366.9,50349,20.94,73998.3,3.53,2.95,2.95,0,*73
1531422368.13,50350,20.94,73996.5,3.53,3.03,2.95,0,*75
1531422369.36,50351,20.94,73996.5,3.53,3.03,2.95,0,*74
1531422370.63,50352,20.94,73998.3,3.53,3.03,3.03,0,*79
1531422371.89,50353,20.88,73994.0,3.53,3.07,3.03,0,*7C
1531422373.1,50354,20.94,73998.8,3.51,3.03,2.95,0,*73
1531422374.28,50355,20.94,73998.8,3.51,2.95,2.91,0,*78
1531422375.48,50356,20.88,73994.3,3.53,2.95,2.91,0,*79
1531422376.69,50357,20.94,73998.0,3.53,2.95,2.95,0,*7C
1531422377.9,50358,20.94,73996.3,3.55,3.07,2.99,0,*73
1531422379.17,50359,20.94,73994.8,3.53,3.07,3.03,0,*76
1531422380.43,50360,20.88,73996.3,3.53,3.03,3.03,0,*78
1531422381.69,50361,20.88,73996.3,3.53,3.03,3.03,0,*79
1531422382.93,50362,20.94,73996.0,3.55,3.07,3.07,0,*7C
1531422384.13,50363,20.88,73996.3,3.53,2.91,2.91,0,*7B
1531422385.31,50364,20.94,73998.0,3.55,2.95,2.95,0,*7A
1531422386.49,50365,20.94,73996.5,3.55,2.99,2.95,0,*77
1531422387.67,50366,20.88,73994.0,3.55,2.99,2.95,0,*74
1531422388.9,50367,20.88,73994.8,3.55,2.85,2.89,0,*75
1531422390.1,50368,20.94,73996.5,3.55,2.89,2.95,0,*7B
1531422391.33,50369,20.88,73994.3,3.53,2.91,2.85,0,*74
1531422392.54,50370,20.94,73998.5,3.55,2.95,2.89,0,*72
1531422393.72,50371,20.94,73996.8,3.55,2.95,2.95,0,*7E
1531422394.92,50372,20.94,73996.8,3.55,2.89,2.95,0,*70
1531422396.15,50373,20.94,73998.8,3.55,2.89,2.89,0,*7C
1531422397.38,50374,20.94,73994.8,3.55,2.85,2.85,0,*7B
1531422398.6,50375,20.88,73994.5,3.55,2.85,2.85,0,*7A
1531422399.83,50376,20.88,73994.5,3.55,2.85,2.81,0,*7D
1531422401.06,50377,20.88,73994.5,3.55,2.85,2.85,0,*78
1531422402.28,50378,20.88,73996.3,3.55,2.89,2.85,0,*7B
1531422403.51,50379,20.94,73998.0,3.55,2.85,2.89,0,*7A
1531422404.74,50380,20.88,73994.5,3.55,2.85,2.85,0,*70
1531422406.0,50381,20.94,73994.8,3.53,2.81,2.77,0,*7E
1531422407.23,50382,20.94,73996.5,3.55,2.81,2.81,0,*72
1531422408.46,50383,20.88,73992.8,3.55,2.85,2.73,0,*7A
1531422409.69,50384,20.88,73996.5,3.55,2.73,2.81,0,*79
1531422410.92,50385,20.94,73998.5,3.55,2.73,2.73,0,*75
1531422412.15,50386,20.94,73996.3,3.55,2.81,2.73,0,*7B
1531422413.39,50387,20.94,73998.0,3.55,2.81,2.81,0,*77
1531422414.64,50388,20.94,73996.5,3.53,2.77,2.77,0,*7E
1531422415.88,50389,20.88,73994.8,3.55,2.81,2.81,0,*79
1531422417.11,50390,20.94,73994.8,3.55,2.81,2.81,0,*71
1531422418.34,50391,20.88,73992.8,3.55,2.81,2.73,0,*7D
1531422419.61,50392,20.94,73996.3,3.57,2.81,2.81,0,*71
1531422420.87,50393,20.94,73996.3,3.57,2.81,2.81,0,*70
1531422422.13,50394,20.88,73994.0,3.57,2.81,2.81,0,*77
1531422423.39,50395,20.94,73996.3,3.57,2.81,2.69,0,*70
1531422424.64,50396,20.94,73996.8,3.57,2.73,2.69,0,*7E
1531422425.87,50397,20.94,73996.8,3.57,2.47,2.35,0,*71
1531422427.1,50398,20.88,73994.5,3.57,2.47,2.35,0,*7E
1531422428.36,50399,20.94,73998.0,3.57,2.51,2.39,0,*74
1531422429.62,50400,20.88,73992.3,3.57,2.51,2.47,0,*7A
1531422430.85,50401,20.88,73992.8,3.55,2.59,2.39,0,*78
1531422432.09,50402,20.88,73994.8,3.55,2.59,2.39,0,*7B
1531422433.31,50403,20.88,73990.3,3.55,2.69,2.47,0,*70
1531422434.54,50404,20.88,73992.3,3.55,2.69,2.47,0,*77
1531422435.77,50405,20.94,73998.0,3.53,2.65,2.47,0,*7C
1531422437.03,50406,20.94,73996.3,3.57,2.73,2.59,0,*73
1531422438.26,50407,20.88,73992.0,3.57,2.69,2.61,0,*72
1531422439.49,50408,20.88,73992.3,3.55,2.81,2.69,0,*71
1531422440.74,50409,20.88,73992.3,3.57,2.73,2.73,0,*74
1531422441.99,50410,20.88,73994.5,3.57,2.73,2.69,0,*77
1531422443.24,50411,20.88,73992.0,3.57,2.73,2.69,0,*76
1531422444.49,50412,20.88,73994.8,3.57,2.73,2.69,0,*75
1531422445.7,50413,20.94,73996.8,3.57,2.61,2.61,0,*7F
1531422446.96,50414,20.94,73998.5,3.57,2.69,2.69,0,*78
1531422448.21,50415,20.94,73994.8,3.57,2.69,2.59,0,*7A
1531422449.45,50416,20.94,73998.0,3.57,2.51,2.61,0,*79
1531422450.66,50417,20.88,73994.8,3.55,2.61,2.59,0,*72
1531422451.86,50418,20.88,73992.0,3.59,2.73,2.65,0,*7D
1531422453.05,50419,20.88,73992.8,3.55,2.61,2.61,0,*77
1531422454.23,50420,20.94,73994.0,3.55,2.61,2.61,0,*7D
1531422455.42,50421,20.94,73994.8,3.55,2.61,2.61,0,*7C
1531422456.64,50422,20.88,73992.8,3.55,2.69,2.69,0,*7F
1531422457.83,50423,20.94,73992.8,3.55,2.61,2.61,0,*7E
1531422459.01,50424,20.94,73996.8,3.59,2.61,2.61,0,*75
1531422460.23,50425,20.94,73996.8,3.57,2.61,2.61,0,*7A
1531422461.49,50426,20.88,73992.0,3.57,2.51,2.51,0,*79
1531422462.75,50427,20.88,73994.5,3.57,2.59,2.69,0,*7B
1531422463.95,50428,20.88,73994.0,3.55,2.61,2.69,0,*7D
1531422465.14,50429,20.88,73994.8,3.55,2.61,2.61,0,*74
1531422466.32,50430,20.88,73994.0,3.55,2.61,2.61,0,*7C
1531422467.56,50431,20.88,73990.3,3.57,2.59,2.61,0,*74
1531422468.77,50432,20.88,73992.3,3.57,2.61,2.61,0,*7C
1531422470.0,50433,20.88,73988.8,3.57,2.61,2.69,0,*75
1531422471.24,50434,20.88,73990.0,3.57,2.69,2.61,0,*72
1531422472.47,50435,20.88,73992.5,3.57,2.61,2.69,0,*73
1531422473.72,50436,20.88,73992.8,3.57,2.69,2.69,0,*78
1531422474.92,50437,20.88,73994.5,3.55,2.61,2.69,0,*73
1531422476.15,50438,20.88,73992.5,3.55,2.69,2.73,0,*7F
1531422477.41,50439,20.88,73992.3,3.57,2.81,2.73,0,*7A
1531422478.66,50440,20.88,73992.8,3.57,2.73,2.69,0,*72
1531422479.92,50441,20.88,73992.5,3.57,2.81,2.69,0,*7E
1531422481.15,50442,20.88,73992.0,3.57,2.69,2.61,0,*73
1531422482.37,50443,20.88,73992.8,3.59,2.73,2.73,0,*74
1531422483.6,50444,20.88,73994.5,3.59,2.73,2.73,0,*73
1531422484.85,50445,20.88,73992.0,3.57,2.73,2.69,0,*77
1531422486.1,50446,20.94,73996.3,3.57,2.73,2.69,0,*74
1531422487.34,50447,20.88,73992.0,3.57,2.81,2.61,0,*70
1531422488.57,50448,20.88,73992.8,3.57,2.61,2.69,0,*79
1531422489.75,50449,20.88,73988.3,3.59,2.65,2.65,0,*7E
1531422490.98,50450,20.88,73992.3,3.57,2.69,2.61,0,*70
1531422492.22,50451,20.88,73994.5,3.57,2.61,2.59,0,*72
1531422493.45,50452,20.88,73992.5,3.57,2.61,2.59,0,*71
1531422494.65,50453,20.88,73994.5,3.59,2.65,2.55,0,*76
1531422495.89,50454,20.94,73996.3,3.57,2.61,2.59,0,*77
1531422497.15,50455,20.88,73992.0,3.57,2.69,2.51,0,*76
1531422498.35,50456,20.88,73994.5,3.59,2.61,2.51,0,*73
1531422499.61,50457,20.88,73992.5,3.57,2.47,2.47,0,*7F
1531422500.87,50458,20.88,73992.8,3.57,2.47,2.39,0,*79
1531422502.13,50459,20.88,73988.5,3.57,2.59,2.47,0,*7E
1531422503.39,50460,20.88,73994.5,3.57,2.59,2.51,0,*73
1531422504.62,50461,20.88,73992.3,3.57,2.47,2.27,0,*7C
1531422505.86,50462,20.94,73994.0,3.55,2.25,2.17,0,*7A
1531422507.09,50463,20.88,73992.3,3.55,2.13,2.13,0,*7A
1531422508.29,50464,20.88,73994.3,3.55,2.47,2.35,0,*78
1531422509.53,50465,20.88,73992.3,3.55,2.47,2.39,0,*75
1531422510.76,50466,20.88,73994.0,3.55,2.39,2.39,0,*7F
1531422511.99,50467,20.88,73992.0,3.53,2.31,2.25,0,*7D
1531422513.2,50468,20.88,73994.0,3.55,2.47,2.35,0,*74
1531422514.4,50469,20.88,73992.0,3.55,2.39,2.35,0,*7C
1531422515.64,50470,20.88,73992.3,3.55,2.47,2.51,0,*7F
1531422516.9,50471,20.88,73992.5,3.53,2.47,2.47,0,*7F
1531422518.13,50472,20.88,73994.5,3.55,2.59,2.51,0,*72
1531422519.37,50473,20.88,73994.0,3.55,2.51,2.39,0,*75
1531422520.6,50474,20.88,73990.3,3.55,2.51,2.47,0,*7B
1531422521.83,50475,20.88,73994.5,3.55,2.69,2.59,0,*7E
1531422523.04,50476,20.88,73992.3,3.55,2.69,2.61,0,*76
1531422524.22,50477,20.88,73990.3,3.55,2.61,2.61,0,*7F
1531422525.41,50478,20.88,73992.3,3.55,2.61,2.61,0,*70
1531422526.62,50479,20.88,73990.5,3.55,2.61,2.59,0,*7A
1531422527.85,50480,20.88,73992.0,3.55,2.59,2.51,0,*7F
1531422529.07,50481,20.88,73992.5,3.55,2.59,2.61,0,*7D
1531422530.3,50482,20.88,73992.8,3.55,2.59,2.51,0,*7D
1531422531.54,50483,20.88,73992.5,3.55,2.47,2.39,0,*7D
1531422532.71,50484,20.88,73994.8,3.55,2.35,2.27,0,*70
1531422533.89,50485,20.88,73994.0,3.55,2.35,2.27,0,*71
1531422535.12,50486,20.88,73992.3,3.55,2.25,2.17,0,*70
1531422536.35,50487,20.88,73994.8,3.55,2.13,2.05,0,*77
1531422537.6,50488,20.88,73998.5,3.53,2.01,1.97,0,*75